GW7140 Weather Reports


time (UTC)temp
C
wind
direction
speed
KPH
gust
KPH
rain 1hr
cm
rain 24hr
cm
rain mn
cm
humidity
%
barometer
mb
20260505113357 17 113 19.3 29.0 0.00 0.00 0.00 95
20260505113056 17 98 17.7 35.4 0.00 0.00 0.00 96
20260505112805 16 108 9.7 19.3 0.00 0.00 0.00 96
20260505112502 17 132 9.7 37.0 0.00 0.00 0.00 96
20260505112157 16 111 11.3 27.4 0.00 0.00 0.00 96
20260505111907 16 116 9.7 17.7 0.00 0.00 0.00 96
20260505111605 16 142 9.7 25.7 0.00 0.00 0.00 95
20260505111304 17 110 9.7 25.7 0.00 0.00 0.00 95
20260505111002 17 115 8.0 27.4 0.00 0.00 0.00 95
20260505110706 17 134 17.7 24.1 0.00 0.00 0.00 94
20260505110356 17 108 14.5 22.5 0.00 0.00 0.00 93
20260505102204 16 125 17.7 33.8 0.00 0.00 0.00 94
20260505101858 16 131 19.3 27.4 0.00 0.00 0.00 95
20260505101608 16 140 17.7 24.1 0.00 0.00 0.00 95
20260505101306 16 109 12.9 37.0 0.00 0.00 0.00 95
20260505101004 16 121 16.1 27.4 0.00 0.00 0.00 95
20260505100702 16 121 12.9 29.0 0.00 0.00 0.00 95
20260505100402 16 106 9.7 27.4 0.00 0.00 0.00 95
20260505100005 16 117 19.3 22.5 0.00 0.00 0.00 96
20260505093958 16 137 12.9 17.7 0.00 0.00 0.00 96
20260505093708 16 111 6.4 27.4 0.00 0.00 0.00 96
20260505093403 16 96 12.9 22.5 0.00 0.00 0.00 96
20260505093108 16 122 6.4 24.1 0.00 0.00 0.00 96
20260505092808 16 150 9.7 32.2 0.00 0.00 0.00 96
20260505092507 16 115 14.5 25.7 0.00 0.00 0.00 96
20260505092206 16 135 8.0 25.7 0.00 0.00 0.00 95
20260505091905 16 111 14.5 17.7 0.00 0.00 0.00 95
20260505091605 16 118 6.4 16.1 0.00 0.00 0.00 95
20260505091303 16 145 17.7 25.7 0.00 0.00 0.00 95
20260505091001 16 108 9.7 22.5 0.00 0.00 0.00 95
20260505090701 16 127 11.3 19.3 0.00 0.00 0.00 95
20260505090359 16 123 16.1 32.2 0.00 0.00 0.00 96
20260505090109 16 127 11.3 19.3 0.00 0.00 0.00 96
20260505090001 16 58 11.3 14.5 0.00 0.00 0.00 96
20260505084302 16 127 8.0 14.5 0.00 0.00 0.00 95
20260505084004 16 143 3.2 11.3 0.00 0.00 0.00 95
20260505083710 16 123 14.5 29.0 0.00 0.00 0.00 95
20260505083407 16 113 8.0 12.9 0.00 0.00 0.00 95
20260505083105 16 75 1.6 14.5 0.00 0.00 0.00 96
20260505082804 16 130 20.9 29.0 0.00 0.00 0.00 96
20260505082504 16 104 11.3 17.7 0.00 0.00 0.00 96
20260505082204 16 107 8.0 14.5 0.00 0.00 0.00 96
20260505081904 16 140 14.5 17.7 0.00 0.00 0.00 96
20260505081603 16 162 6.4 11.3 0.00 0.00 0.00 96
20260505081301 16 149 6.4 12.9 0.00 0.00 0.00 96
20260505081008 16 140 11.3 22.5 0.00 0.00 0.00 96
20260505080708 16 126 6.4 12.9 0.00 0.00 0.00 97
20260505080407 16 140 6.4 22.5 0.00 0.00 0.00 97
20260505080105 16 102 4.8 19.3 0.00 0.00 0.00 97
20260505080009 16 190 6.4 17.7 0.00 0.00 0.00 97
20260505074310 16 115 8.0 22.5 0.00 0.00 0.00 97
20260505074009 16 134 6.4 17.7 0.00 0.00 0.00 97
20260505073709 16 133 11.3 22.5 0.00 0.00 0.00 97
20260505073405 16 96 8.0 19.3 0.00 0.00 0.00 97
20260505073108 16 151 9.7 19.3 0.00 0.00 0.00 97
20260505072813 16 129 14.5 19.3 0.00 0.00 0.00 97
20260505072511 16 140 12.9 22.5 0.00 0.00 0.00 97
20260505072211 16 115 6.4 16.1 0.00 0.00 0.00 97
20260505071909 16 111 17.7 27.4 0.00 0.00 0.00 97
20260505071609 16 158 14.5 17.7 0.00 0.00 0.00 97
20260505071306 16 135 8.0 17.7 0.00 0.00 0.00 97
20260505071004 16 191 14.5 19.3 0.00 0.00 0.00 97
20260505070713 17 131 14.5 35.4 0.00 0.00 0.00 97
20260505070411 17 102 6.4 27.4 0.00 0.00 0.00 97
20260505070112 17 128 11.3 14.5 0.00 0.00 0.00 97
20260505070009 17 96 8.0 22.5 0.00 0.00 0.00 97
20260505064611 17 149 19.3 33.8 0.00 0.00 0.00 97
20260505064302 17 128 8.0 22.5 0.00 0.00 0.00 97
20260505064008 17 108 9.7 24.1 0.00 0.00 0.00 97
20260505063705 17 96 9.7 19.3 0.00 0.00 0.00 97
20260505063408 17 110 9.7 14.5 0.00 0.00 0.00 97
20260505063110 17 97 11.3 19.3 0.00 0.00 0.00 97
20260505062811 17 117 11.3 17.7 0.00 0.00 0.00 97
20260505062508 17 123 9.7 25.7 0.00 0.00 0.00 97
20260505062209 17 102 17.7 33.8 0.00 0.00 0.00 97
20260505061904 17 148 14.5 33.8 0.00 0.00 0.00 97
20260505061610 17 151 16.1 24.1 0.00 0.00 0.00 97
20260505061310 17 129 16.1 25.7 0.00 0.00 0.00 97
20260505061006 17 108 11.3 22.5 0.00 0.00 0.00 97
20260505060706 17 158 14.5 24.1 0.00 0.00 0.00 97
20260505060405 17 145 12.9 27.4 0.00 0.00 0.00 97
20260505060111 17 108 19.3 27.4 0.00 0.00 0.00 97
20260505060010 17 143 9.7 19.3 0.00 0.00 0.00 97
20260505054312 17 107 11.3 24.1 0.00 0.00 0.00 97
20260505054011 17 126 12.9 25.7 0.00 0.00 0.00 97
20260505053714 17 146 14.5 25.7 0.00 0.00 0.00 97
20260505053412 17 112 16.1 25.7 0.00 0.00 0.00 97
20260505053106 17 112 11.3 24.1 0.00 0.00 0.00 97
20260505052816 17 84 11.3 24.1 0.00 0.00 0.00 97
20260505052514 17 155 14.5 17.7 0.00 0.00 0.00 97
20260505052212 17 125 16.1 24.1 0.00 0.00 0.00 97
20260505051908 17 144 11.3 25.7 0.00 0.00 0.00 97
20260505051610 17 119 14.5 32.2 0.00 0.00 0.00 97
20260505051307 17 139 19.3 32.2 0.00 0.00 0.00 97
20260505051006 17 99 16.1 24.1 0.00 0.00 0.00 97
20260505050705 17 114 16.1 37.0 0.00 0.00 0.00 97
20260505050405 17 129 16.1 29.0 0.00 0.00 0.00 97
20260505050105 17 117 16.1 33.8 0.00 0.00 0.00 97
20260505041617 17 146 12.9 17.7 0.00 0.00 0.00 96
20260505041318 17 97 16.1 24.1 0.00 0.00 0.00 96
20260505041008 17 111 6.4 19.3 0.00 0.00 0.00 97
20260505040711 17 105 9.7 14.5 0.00 0.00 0.00 96
20260505040410 17 106 14.5 19.3 0.00 0.00 0.00 96
20260505040109 17 131 12.9 16.1 0.00 0.00 0.00 96
20260505040002 17 108 9.7 16.1 0.00 0.00 0.00 96
20260505034009 17 122 11.3 19.3 0.00 0.00 0.00 96
20260505033708 17 103 9.7 16.1 0.00 0.00 0.00 96
20260505033418 17 159 6.4 17.7 0.00 0.00 0.00 96
20260505033117 17 68 11.3 12.9 0.00 0.00 0.00 96
20260505032816 17 131 12.9 19.3 0.00 0.00 0.00 96
20260505032510 17 119 8.0 24.1 0.00 0.00 0.00 96
20260505032218 17 121 11.3 17.7 0.00 0.00 0.00 96
20260505031919 17 105 9.7 16.1 0.00 0.00 0.00 96
20260505031618 17 149 12.9 24.1 0.00 0.00 0.00 96
20260505031316 17 132 9.7 14.5 0.00 0.00 0.00 96
20260505031016 17 112 9.7 19.3 0.00 0.00 0.00 96
20260505030713 17 118 9.7 16.1 0.00 0.00 0.00 96
20260505030412 17 166 8.0 16.1 0.00 0.00 0.00 96
20260505030108 17 129 3.2 19.3 0.00 0.00 0.00 96
20260505030009 17 99 8.0 14.5 0.00 0.00 0.00 96
20260505024013 17 125 14.5 19.3 0.00 0.00 0.00 96
20260505023710 17 124 6.4 9.7 0.00 0.00 0.00 95
20260505023417 17 171 9.7 12.9 0.00 0.00 0.00 95
20260505023114 17 104 8.0 17.7 0.00 0.00 0.00 95
20260505022811 17 129 9.7 16.1 0.00 0.00 0.00 95
20260505022517 17 124 12.9 22.5 0.00 0.00 0.00 95
20260505022219 17 137 11.3 12.9 0.00 0.00 0.00 95
20260505021916 17 110 6.4 16.1 0.00 0.00 0.00 95
20260505021612 17 115 6.4 11.3 0.00 0.00 0.00 95
20260505021309 17 103 11.3 22.5 0.00 0.00 0.00 96
20260505021018 17 113 9.7 12.9 0.00 0.00 0.00 95
20260505020715 17 158 9.7 14.5 0.00 0.00 0.00 95
20260505020410 17 121 9.7 16.1 0.00 0.00 0.00 95
20260505020119 17 132 9.7 14.5 0.00 0.00 0.00 95
20260505020010 17 108 6.4 12.9 0.00 0.00 0.00 95
20260505014321 17 114 4.8 11.3 0.00 0.00 0.00 95
20260505014018 17 110 9.7 12.9 0.00 0.00 0.00 95
20260505013715 17 123 9.7 17.7 0.00 0.00 0.00 95
20260505013412 17 99 8.0 16.1 0.00 0.00 0.00 96
20260505013121 17 122 4.8 11.3 0.00 0.00 0.00 96
20260505012819 17 130 8.0 14.5 0.00 0.00 0.00 96
20260505012515 17 114 8.0 16.1 0.00 0.00 0.00 96
20260505012221 17 111 3.2 17.7 0.00 0.00 0.00 96
20260505011917 17 112 9.7 14.5 0.00 0.00 0.00 96
20260505011614 17 121 12.9 19.3 0.00 0.00 0.00 97
20260505011312 17 111 12.9 19.3 0.00 0.00 0.00 97
20260505011018 17 103 9.7 19.3 0.00 0.00 0.00 97
20260505010716 17 126 3.2 22.5 0.00 0.00 0.00 97
20260505010414 17 146 12.9 19.3 0.00 0.00 0.00 97
20260505010122 17 113 6.4 14.5 0.00 0.00 0.00 97
20260505010001 17 97 4.8 14.5 0.00 0.00 0.00 97
20260505004014 17 105 8.0 16.1 0.00 0.00 0.00 97
20260505003722 17 122 8.0 16.1 0.00 0.00 0.00 97
20260505003419 17 114 9.7 14.5 0.00 0.00 0.00 97
20260505003113 17 107 9.7 12.9 0.00 0.00 0.00 97
20260505002821 17 138 9.7 19.3 0.00 0.00 0.00 97
20260505002519 17 126 11.3 22.5 0.00 0.00 0.00 97
20260505002217 17 173 9.7 14.5 0.00 0.00 0.00 97
20260505001914 17 112 11.3 17.7 0.00 0.00 0.00 96
20260505001619 17 119 12.9 19.3 0.00 0.00 0.00 96
20260505001314 17 100 9.7 22.5 0.00 0.00 0.00 96
20260505001022 17 135 12.9 17.7 0.00 0.00 0.00 96
20260505000715 17 149 8.0 16.1 0.00 0.00 0.00 96
20260505000420 17 113 8.0 19.3 0.00 0.00 0.00 96
20260505000113 17 86 6.4 17.7 0.00 0.00 0.00 96
20260505000003 17 110 11.3 17.7 0.00 0.00 0.00 96
20260504234021 17 106 8.0 11.3 0.00 0.00 0.00 96
20260504233716 17 112 9.7 17.7 0.00 0.00 0.00 96
20260504233420 17 117 8.0 12.9 0.00 0.00 0.00 96
20260504233116 17 135 8.0 16.1 0.00 0.00 0.00 96
20260504232823 17 134 12.9 14.5 0.00 0.00 0.00 96
20260504232521 17 134 11.3 19.3 0.00 0.00 0.00 96
20260504232218 17 148 12.9 19.3 0.00 0.00 0.00 96
20260504231914 17 105 8.0 11.3 0.00 0.00 0.00 96
20260504231621 17 160 8.0 12.9 0.00 0.00 0.00 96
20260504231319 17 95 14.5 16.1 0.00 0.00 0.00 96
20260504231017 17 91 4.8 16.1 0.00 0.00 0.00 96
20260504230715 17 108 4.8 16.1 0.00 0.00 0.00 96
20260504230423 17 132 11.3 14.5 0.00 0.00 0.00 96
20260504230118 17 104 4.8 9.7 0.00 0.00 0.00 96
20260504230001 17 141 8.0 12.9 0.00 0.00 0.00 96
20260504224021 17 124 3.2 14.5 0.00 0.00 0.00 96
20260504223719 17 117 1.6 4.8 0.00 0.00 0.00 96
20260504223415 17 128 9.7 16.1 0.00 0.00 0.00 96
20260504223114 17 278 3.2 4.8 0.00 0.00 0.00 96
20260504222824 17 120 1.6 4.8 0.00 0.00 0.00 96
20260504222520 17 98 4.8 12.9 0.00 0.00 0.00 96
20260504222217 17 143 4.8 12.9 0.00 0.00 0.00 96
20260504221924 17 140 3.2 9.7 0.00 0.00 0.00 96
20260504221623 17 99 4.8 11.3 0.00 0.00 0.00 96
20260504221320 17 76 8.0 14.5 0.00 0.00 0.00 96
20260504221017 17 115 17.7 27.4 0.00 0.00 0.00 96
20260504220725 17 100 6.4 17.7 0.00 0.00 0.00 96
20260504220422 17 96 6.4 12.9 0.00 0.00 0.00 96
20260504220120 17 90 9.7 12.9 0.00 0.00 0.00 96
20260504220011 17 97 8.0 11.3 0.00 0.00 0.00 96
20260504214026 18 124 4.8 9.7 0.00 0.00 0.00 96
20260504213724 18 95 4.8 11.3 0.00 0.00 0.00 96
20260504213420 17 70 1.6 4.8 0.00 0.00 0.00 96
20260504213117 18 111 6.4 14.5 0.00 0.00 0.00 96
20260504212826 18 98 4.8 9.7 0.00 0.00 0.00 96
20260504212522 18 100 9.7 16.1 0.00 0.00 0.00 96
20260504212220 17 137 8.0 12.9 0.00 0.00 0.00 96
20260504211928 18 75 1.6 11.3 0.00 0.00 0.00 96
20260504211626 18 125 3.2 6.4 0.00 0.00 0.00 96
20260504211323 18 108 3.2 6.4 0.00 0.00 0.00 96
20260504211027 18 91 4.8 9.7 0.00 0.00 0.00 96
20260504210722 18 69 3.2 6.4 0.00 0.00 0.00 96
20260504210419 17 30 1.6 4.8 0.00 0.00 0.00 96
20260504210127 18 112 3.2 16.1 0.00 0.00 0.00 96
20260504210007 17 154 9.7 16.1 0.00 0.00 0.00 96
20260504204027 18 62 1.6 9.7 0.00 0.00 0.00 95
20260504203722 18 121 9.7 14.5 0.00 0.00 0.00 95
20260504203419 18 97 11.3 17.7 0.00 0.00 0.00 95
20260504203127 18 71 3.2 14.5 0.00 0.00 0.00 95
20260504202824 18 100 6.4 9.7 0.00 0.00 0.00 95
20260504202521 17 127 16.1 22.5 0.00 0.00 0.00 95
20260504202228 18 97 6.4 22.5 0.00 0.00 0.00 95
20260504201926 17 138 8.0 17.7 0.00 0.00 0.00 95
20260504201622 18 116 8.0 19.3 0.00 0.00 0.00 95
20260504201329 18 123 6.4 22.5 0.00 0.00 0.00 95
20260504201027 18 127 8.0 14.5 0.00 0.00 0.00 95
20260504200728 18 75 6.4 12.9 0.00 0.00 0.00 95
20260504200424 18 122 11.3 17.7 0.00 0.00 0.00 94
20260504200121 18 107 9.7 19.3 0.00 0.00 0.00 94
20260504200002 18 80 11.3 25.7 0.00 0.00 0.00 94
20260504194320 18 91 1.6 11.3 0.00 0.00 0.00 92
20260504194027 18 95 1.6 9.7 0.00 0.00 0.00 91
20260504193721 18 265 12.9 22.5 0.00 0.00 0.00 91
20260504193429 18 73 4.8 4.8 0.00 0.00 0.00 92
20260504193125 18 128 9.7 12.9 0.00 0.00 0.00 91
20260504192821 18 87 6.4 11.3 0.00 0.00 0.00 91
20260504192530 18 235 6.4 6.4 0.00 0.00 0.00 92
20260504192227 18 114 8.0 19.3 0.00 0.00 0.00 92
20260504191925 18 86 3.2 9.7 0.00 0.00 0.00 93
20260504191623 18 71 6.4 11.3 0.00 0.00 0.00 93
20260504191327 18 95 1.6 3.2 0.00 0.00 0.00 91
20260504191029 18 125 12.9 16.1 0.00 0.00 0.00 91
20260504190725 18 232 9.7 17.7 0.00 0.00 0.00 88
20260504190424 18 66 9.7 16.1 0.00 0.00 0.00 88
20260504190122 18 109 8.0 14.5 0.00 0.00 0.00 90
20260504190002 18 124 8.0 11.3 0.00 0.00 0.00 89
20260504184028 19 60 9.7 12.9 0.00 0.00 0.00 89
20260504183727 18 107 11.3 24.1 0.00 0.00 0.00 89
20260504183427 18 93 4.8 22.5 0.00 0.00 0.00 89
20260504183125 18 73 9.7 19.3 0.00 0.00 0.00 90
20260504182822 19 31 3.2 14.5 0.00 0.00 0.00 90
20260504182521 19 110 3.2 9.7 0.00 0.00 0.00 87
20260504182222 19 102 9.7 14.5 0.00 0.00 0.00 89
20260504181931 19 66 8.0 11.3 0.00 0.00 0.00 86
20260504181631 19 338 6.4 19.3 0.00 0.00 0.00 88
20260504181330 18 99 6.4 11.3 0.00 0.00 0.00 89
20260504181030 18 104 6.4 24.1 0.00 0.00 0.00 86
20260504180730 18 79 9.7 12.9 0.00 0.00 0.00 89
20260504180429 18 102 4.8 17.7 0.00 0.00 0.00 88
20260504180129 18 7 1.6 6.4 0.00 0.00 0.00 89
20260504180010 19 140 9.7 22.5 0.00 0.00 0.00 86
20260504174031 19 74 3.2 12.9 0.00 0.00 0.00 86
20260504173730 20 73 6.4 11.3 0.00 0.00 0.00 84
20260504173429 19 111 8.0 9.7 0.00 0.00 0.00 84
20260504173125 20 54 16.1 19.3 0.00 0.00 0.00 82
20260504172823 20 74 14.5 16.1 0.00 0.00 0.00 80
20260504172522 20 136 4.8 11.3 0.00 0.00 0.00 82
20260504172233 20 96 3.2 12.9 0.00 0.00 0.00 82
20260504171928 20 67 9.7 22.5 0.00 0.00 0.00 77
20260504171633 20 113 8.0 12.9 0.00 0.00 0.00 78
20260504171333 20 121 6.4 9.7 0.00 0.00 0.00 80
20260504171032 20 339 4.8 6.4 0.00 0.00 0.00 78
20260504170729 20 84 1.6 16.1 0.00 0.00 0.00 79
20260504170428 20 86 6.4 16.1 0.00 0.00 0.00 79
20260504170128 20 108 9.7 16.1 0.00 0.00 0.00 78
20260504160426 20 119 9.7 22.5 0.00 0.00 0.00 75
20260504160133 20 80 16.1 19.3 0.00 0.00 0.00 75
20260504151029 18 27 9.7 27.4 0.00 0.00 0.00 85
20260504150727 18 84 8.0 32.2 0.00 0.00 0.00 86
20260504150436 18 128 9.7 17.7 0.00 0.00 0.00 84
20260504150136 19 69 8.0 22.5 0.00 0.00 0.00 84
20260504141329 18 116 12.9 19.3 0.00 0.00 0.00 87
20260504141039 18 118 12.9 24.1 0.00 0.00 0.00 88
20260504140738 18 84 16.1 19.3 0.00 0.00 0.00 87
20260504140433 18 103 14.5 29.0 0.00 0.00 0.00 85
20260504140133 18 99 8.0 16.1 0.00 0.00 0.00 86
20260504130430 18 135 12.9 22.5 0.00 0.00 0.00 82
20260504130140 18 111 11.3 19.3 0.00 0.00 0.00 85
20260504120137 18 134 12.9 32.2 0.00 0.00 0.00 70